GW6839 Weather Reports


time (UTC)temp
C
wind
direction
speed
KPH
gust
KPH
rain 1hr
cm
rain 24hr
cm
rain mn
cm
humidity
%
barometer
mb
20260510180350 13 276 6.4 14.5 0.00 0.00 0.00 35 1017.1
20260510175847 13 329 3.2 6.4 0.00 0.00 0.00 33 1017.1
20260510175342 15 62 3.2 9.7 0.00 0.00 0.00 35 1017.0
20260510174839 14 156 4.8 9.7 0.00 0.00 0.00 35 1017.1
20260510174337 13 324 4.8 33.8 0.00 0.00 0.00 36 1017.2
20260510173833 13 347 6.4 12.9 0.00 0.00 0.00 39 1017.1
20260510173329 13 324 4.8 17.7 0.00 0.00 0.00 36 1017.1
20260510172825 13 8 6.4 12.9 0.00 0.00 0.00 34 1017.1
20260510172321 13 312 4.8 11.3 0.00 0.00 0.00 35 1017.3
20260510171818 14 347 6.4 11.3 0.00 0.00 0.00 33 1017.5
20260510171315 13 74 4.8 9.7 0.00 0.00 0.00 33 1017.5
20260510170812 13 277 4.8 20.9 0.00 0.00 0.00 37 1017.3
20260510170308 14 333 4.8 11.3 0.00 0.00 0.00 33 1017.3
20260510165803 13 71 3.2 6.4 0.00 0.00 0.00 35 1017.4
20260510165300 13 323 6.4 9.7 0.00 0.00 0.00 35 1017.4
20260510164757 13 355 3.2 11.3 0.00 0.00 0.00 35 1017.5
20260510164255 13 268 1.6 17.7 0.00 0.00 0.00 39 1017.5
20260510163754 13 75 3.2 9.7 0.00 0.00 0.00 37 1017.4
20260510163251 13 27 8.0 24.1 0.00 0.00 0.00 38 1017.4
20260510162750 13 286 8.0 20.9 0.00 0.00 0.00 32 1017.3
20260510162248 13 271 1.6 9.7 0.00 0.00 0.00 39 1017.4
20260510161743 12 73 3.2 11.3 0.00 0.00 0.00 36 1017.4
20260510161239 12 246 8.0 14.5 0.00 0.00 0.00 38 1017.4
20260510160737 12 275 11.3 17.7 0.00 0.00 0.00 40 1017.4
20260510160232 12 8 3.2 11.3 0.00 0.00 0.00 40 1017.3
20260510155728 12 302 4.8 16.1 0.00 0.00 0.00 41 1017.2
20260510155224 12 311 3.2 4.8 0.00 0.00 0.00 42 1017.1
20260510154720 12 230 4.8 6.4 0.00 0.00 0.00 40 1017.1
20260510154216 12 96 3.2 11.3 0.00 0.00 0.00 39 1017.1
20260510153711 12 9 12.9 16.1 0.00 0.00 0.00 38 1017.1
20260510153208 12 307 8.0 12.9 0.00 0.00 0.00 41 1017.2
20260510152705 12 355 4.8 9.7 0.00 0.00 0.00 39 1017.1
20260510152200 12 25 3.2 4.8 0.00 0.00 0.00 40 1016.9
20260510151657 11 354 4.8 16.1 0.00 0.00 0.00 44 1016.9
20260510151156 11 308 3.2 20.9 0.00 0.00 0.00 45 1016.8
20260510150651 11 272 9.7 14.5 0.00 0.00 0.00 44 1017.0
20260510150147 11 244 12.9 20.9 0.00 0.00 0.00 43 1017.0
20260510145643 11 73 3.2 24.1 0.00 0.00 0.00 45 1016.9
20260510145140 11 18 3.2 6.4 0.00 0.00 0.00 43 1016.8
20260510144636 11 182 3.2 16.1 0.00 0.00 0.00 44 1016.9
20260510144132 11 262 3.2 6.4 0.00 0.00 0.00 42 1016.6
20260510143628 11 257 4.8 12.9 0.00 0.00 0.00 42 1016.9
20260510143124 11 273 3.2 9.7 0.00 0.00 0.00 44 1016.7
20260510142621 11 298 11.3 16.1 0.00 0.00 0.00 45 1016.8
20260510142118 11 284 3.2 6.4 0.00 0.00 0.00 43 1016.6
20260510141615 11 344 4.8 9.7 0.00 0.00 0.00 42 1016.5
20260510141113 11 307 1.6 9.7 0.00 0.00 0.00 47 1016.5
20260510140609 11 264 3.2 9.7 0.00 0.00 0.00 45 1016.4
20260510140108 11 22 3.2 6.4 0.00 0.00 0.00 44 1016.4
20260510135604 10 129 3.2 12.9 0.00 0.00 0.00 45 1016.6
20260510135100 10 13 1.6 12.9 0.00 0.00 0.00 46 1016.4
20260510134557 10 10 1.6 3.2 0.00 0.00 0.00 48 1016.4
20260510134054 10 295 4.8 6.4 0.00 0.00 0.00 46 1016.3
20260510133550 11 99 3.2 14.5 0.00 0.00 0.00 49 1016.1
20260510133046 10 304 1.6 1.6 0.00 0.00 0.00 49 1016.2
20260510132543 9 312 6.4 12.9 0.00 0.00 0.00 52 1016.2
20260510132040 9 272 12.9 14.5 0.00 0.00 0.00 52 1015.9
20260510131538 9 270 1.6 6.4 0.00 0.00 0.00 52 1015.9
20260510131035 9 280 6.4 11.3 0.00 0.00 0.00 51 1016.0
20260510130531 10 255 4.8 12.9 0.00 0.00 0.00 50 1016.1
20260510130029 10 346 1.6 1.6 0.00 0.00 0.00 52 1016.1
20260510125525 9 348 0.0 4.8 0.00 0.00 0.00 50 1015.9
20260510125021 10 296 6.4 11.3 0.00 0.00 0.00 52 1015.9
20260510124518 9 353 0.0 4.8 0.00 0.00 0.00 52 1015.7
20260510124015 9 23 1.6 3.2 0.00 0.00 0.00 51 1015.7
20260510123510 9 348 1.6 4.8 0.00 0.00 0.00 55 1015.6
20260510123006 8 30 1.6 3.2 0.00 0.00 0.00 56 1015.7
20260510122502 8 276 1.6 3.2 0.00 0.00 0.00 57 1015.7
20260510121958 8 327 0.0 3.2 0.00 0.00 0.00 59 1015.6
20260510121455 8 0 1.6 4.8 0.00 0.00 0.00 61 1015.6
20260510120953 8 10 1.6 1.6 0.00 0.00 0.00 62 1015.5
20260510120450 7 358 0.0 3.2 0.00 0.00 0.00 65 1015.7
20260510115946 7 23 0.0 3.2 0.00 0.00 0.00 65 1015.6
20260510115443 7 301 3.2 4.8 0.00 0.00 0.00 66 1015.4
20260510114939 7 326 1.6 3.2 0.00 0.00 0.00 69 1015.3
20260510114436 6 356 0.0 4.8 0.00 0.00 0.00 72 1015.3
20260510113931 6 309 4.8 4.8 0.00 0.00 0.00 73 1015.4
20260510113427 5 298 3.2 4.8 0.00 0.00 0.00 74 1015.1
20260510112925 5 323 3.2 6.4 0.00 0.00 0.00 75 1015.3
20260510112422 5 287 4.8 4.8 0.00 0.00 0.00 77 1015.0
20260510111918 5 337 1.6 4.8 0.00 0.00 0.00 79 1014.8
20260510111414 5 315 0.0 1.6 0.00 0.00 0.00 82 1014.9
20260510110910 4 338 1.6 3.2 0.00 0.00 0.00 85 1014.8
20260510110406 3 335 0.0 3.2 0.00 0.00 0.00 91 1014.7
20260510105903 3 339 0.0 1.6 0.00 0.00 0.00 94 1014.9
20260510105402 2 321 1.6 3.2 0.00 0.00 0.00 95 1014.6
20260510104859 2 332 1.6 3.2 0.00 0.00 0.00 95 1014.3
20260510104356 2 334 0.0 1.6 0.00 0.00 0.00 96 1014.6
20260510103852 1 335 0.0 0.0 0.00 0.00 0.00 95 1014.6
20260510103349 1 335 0.0 0.0 0.00 0.00 0.00 95 1014.3
20260510102845 1 335 0.0 0.0 0.00 0.00 0.00 95 1014.5
20260510102341 0 335 0.0 0.0 0.00 0.00 0.00 95 1014.4
20260510101838 0 335 0.0 0.0 0.00 0.00 0.00 95 1014.2
20260510101336 0 335 0.0 0.0 0.00 0.00 0.00 95 1014.3
20260510100832 1 335 0.0 0.0 0.00 0.00 0.00 95 1014.0
20260510100330 1 335 0.0 0.0 0.00 0.00 0.00 95 1013.9
20260510095826 1 335 0.0 0.0 0.00 0.00 0.00 95 1013.9
20260510095321 1 335 0.0 0.0 0.00 0.00 0.00 95 1013.6
20260510094820 1 335 0.0 0.0 0.00 0.00 0.00 95 1013.6
20260510094316 0 335 0.0 0.0 0.00 0.00 0.00 94 1013.6
20260510093812 1 335 0.0 0.0 0.00 0.00 0.00 94 1013.7
20260510093308 1 335 0.0 0.0 0.00 0.00 0.00 94 1013.7
20260510092805 1 335 0.0 0.0 0.00 0.00 0.00 94 1013.5
20260510092301 1 335 0.0 0.0 0.00 0.00 0.00 94 1013.3
20260510091756 1 335 0.0 0.0 0.00 0.00 0.00 94 1013.3
20260510091254 1 335 0.0 0.0 0.00 0.00 0.00 94 1013.1
20260510090750 0 335 0.0 0.0 0.00 0.00 0.00 93 1012.9
20260510090248 1 335 0.0 0.0 0.00 0.00 0.00 93 1012.9
20260510085743 1 335 0.0 0.0 0.00 0.00 0.00 93 1012.7
20260510085237 1 335 0.0 0.0 0.00 0.00 0.00 93 1012.8
20260510084734 1 335 0.0 0.0 0.00 0.00 0.00 92 1012.6
20260510084231 1 335 0.0 0.0 0.00 0.00 0.00 92 1012.7
20260510083727 1 335 0.0 0.0 0.00 0.00 0.00 92 1012.4
20260510083225 1 335 0.0 0.0 0.00 0.00 0.00 92 1012.5
20260510082720 1 335 0.0 0.0 0.00 0.00 0.00 92 1012.3
20260510082217 1 335 0.0 0.0 0.00 0.00 0.00 91 1012.4
20260510081716 1 335 0.0 0.0 0.00 0.00 0.00 91 1012.4
20260510081213 2 335 0.0 0.0 0.00 0.00 0.00 90 1012.1
20260510080712 2 335 0.0 0.0 0.00 0.00 0.00 90 1012.3
20260510080209 2 335 0.0 0.0 0.00 0.00 0.00 90 1012.0
20260510075706 2 335 0.0 0.0 0.00 0.00 0.00 89 1012.0
20260510075203 2 322 1.6 1.6 0.00 0.00 0.00 89 1012.0
20260510074700 2 331 0.0 3.2 0.00 0.00 0.00 89 1012.0
20260510074156 2 335 1.6 1.6 0.00 0.00 0.00 88 1011.8
20260510073653 2 336 0.0 0.0 0.00 0.00 0.00 88 1011.9
20260510073149 2 336 0.0 0.0 0.00 0.00 0.00 88 1011.8
20260510072645 2 336 1.6 1.6 0.00 0.00 0.00 87 1011.7
20260510072142 3 336 0.0 0.0 0.00 0.00 0.00 86 1011.7
20260510071637 3 336 0.0 0.0 0.00 0.00 0.00 86 1011.6
20260510071135 3 336 0.0 1.6 0.00 0.00 0.00 86 1011.5
20260510070633 3 335 1.6 1.6 0.00 0.00 0.00 85 1011.5
20260510070130 3 356 0.0 0.0 0.00 0.00 0.00 83 1011.4
20260510065626 3 356 0.0 1.6 0.00 0.00 0.00 82 1011.3
20260510065122 3 356 0.0 0.0 0.00 0.00 0.00 82 1011.2
20260510064618 3 356 0.0 0.0 0.00 0.00 0.00 80 1011.3
20260510064115 4 356 0.0 0.0 0.00 0.00 0.00 78 1011.2
20260510063612 5 356 0.0 0.0 0.00 0.00 0.00 77 1011.2
20260510063109 5 356 0.0 0.0 0.00 0.00 0.00 76 1011.1
20260510062605 5 356 0.0 0.0 0.00 0.00 0.00 75 1011.0
20260510062100 5 356 0.0 1.6 0.00 0.00 0.00 74 1011.0
20260510061557 5 357 0.0 0.0 0.00 0.00 0.00 73 1010.9
20260510061054 6 0 0.0 1.6 0.00 0.00 0.00 73 1010.8
20260510060550 6 1 1.6 3.2 0.00 0.00 0.00 72 1010.7
20260510060046 6 0 1.6 3.2 0.00 0.00 0.00 71 1010.8
20260510055542 6 2 1.6 3.2 0.00 0.00 0.00 71 1010.7
20260510055041 6 12 1.6 4.8 0.00 0.00 0.00 70 1010.7
20260510054536 6 16 3.2 6.4 0.00 0.00 0.00 70 1010.7
20260510054032 6 33 6.4 9.7 0.00 0.00 0.00 69 1010.6
20260510053527 7 17 8.0 12.9 0.00 0.00 0.00 69 1010.7
20260510053024 7 2 6.4 9.7 0.00 0.00 0.00 70 1010.7
20260510052520 7 14 3.2 4.8 0.00 0.00 0.00 68 1010.5
20260510052016 7 20 3.2 6.4 0.00 0.00 0.00 68 1010.4
20260510051512 7 16 4.8 9.7 0.00 0.00 0.00 67 1010.4
20260510051008 7 28 3.2 4.8 0.00 0.00 0.00 67 1010.4
20260510050506 8 29 4.8 11.3 0.00 0.00 0.00 65 1010.1
20260510050002 8 53 4.8 12.9 0.00 0.00 0.00 65 1009.9
20260510045500 7 348 0.0 1.6 0.00 0.00 0.00 67 1009.5
20260510044956 7 348 0.0 0.0 0.00 0.00 0.00 65 1009.4
20260510044453 8 347 0.0 0.0 0.00 0.00 0.00 65 1009.3
20260510043950 8 349 0.0 0.0 0.00 0.00 0.00 64 1009.3
20260510043445 8 347 0.0 0.0 0.00 0.00 0.00 64 1009.3
20260510042944 8 348 0.0 0.0 0.00 0.00 0.00 63 1009.2
20260510042440 8 357 0.0 0.0 0.00 0.00 0.00 62 1009.1
20260510041935 8 354 0.0 1.6 0.00 0.00 0.00 62 1009.0
20260510041433 8 349 0.0 0.0 0.00 0.00 0.00 61 1009.0
20260510040931 9 345 0.0 0.0 0.00 0.00 0.00 61 1009.0
20260510040427 10 341 0.0 1.6 0.00 0.00 0.00 59 1008.9
20260510035923 10 347 0.0 1.6 0.00 0.13 0.13 58 1009.0
20260510035419 10 349 0.0 1.6 0.00 0.13 0.13 57 1008.8
20260510034919 10 352 0.0 3.2 0.00 0.13 0.13 56 1008.8
20260510034418 10 349 1.6 3.2 0.00 0.13 0.13 55 1008.8
20260510033914 11 336 0.0 9.7 0.00 0.13 0.13 55 1008.6
20260510033410 11 297 1.6 6.4 0.00 0.13 0.13 55 1008.6
20260510032907 11 321 1.6 1.6 0.00 0.13 0.13 56 1008.6
20260510032404 11 359 1.6 3.2 0.00 0.13 0.13 56 1008.4
20260510031859 11 2 3.2 6.4 0.00 0.13 0.13 55 1008.3
20260510031355 11 346 1.6 6.4 0.00 0.13 0.13 56 1008.3
20260510030854 11 336 6.4 11.3 0.00 0.13 0.13 55 1008.4
20260510030351 11 220 1.6 4.8 0.00 0.13 0.13 56 1008.3
20260510025849 11 348 1.6 3.2 0.00 0.13 0.13 56 1008.2
20260510025346 11 331 3.2 4.8 0.00 0.13 0.13 55 1008.0
20260510024843 11 337 3.2 4.8 0.00 0.13 0.13 56 1008.1
20260510024340 11 355 1.6 3.2 0.00 0.13 0.13 56 1008.0
20260510023836 11 350 1.6 3.2 0.00 0.13 0.13 56 1008.1
20260510023333 12 358 1.6 3.2 0.00 0.13 0.13 55 1008.0
20260510022830 12 60 4.8 9.7 0.00 0.13 0.13 56 1007.8
20260510022328 12 333 3.2 6.4 0.00 0.13 0.13 55 1007.6
20260510021828 12 358 3.2 4.8 0.00 0.13 0.13 55 1007.5
20260510021326 12 17 3.2 12.9 0.00 0.13 0.13 54 1007.3
20260510020822 12 28 3.2 16.1 0.00 0.13 0.13 56 1007.4
20260510020317 12 341 3.2 6.4 0.00 0.13 0.13 57 1006.9
20260510015813 12 1 4.8 9.7 0.00 0.13 0.13 56 1007.0
20260510015309 12 345 6.4 12.9 0.00 0.13 0.13 55 1006.8
20260510014805 12 7 6.4 9.7 0.00 0.13 0.13 54 1006.6
20260510014302 13 355 6.4 11.3 0.00 0.13 0.13 54 1006.3
20260510013758 13 41 4.8 12.9 0.00 0.13 0.13 53 1006.3
20260510013254 13 9 6.4 11.3 0.00 0.13 0.13 53 1006.2
20260510012749 13 357 6.4 6.4 0.00 0.13 0.13 53 1005.8
20260510012244 13 37 4.8 9.7 0.00 0.13 0.13 51 1005.9
20260510011743 14 324 4.8 16.1 0.00 0.13 0.13 50 1005.5
20260510011239 14 344 6.4 11.3 0.00 0.13 0.13 49 1005.4
20260510010736 15 288 6.4 14.5 0.00 0.13 0.13 49 1005.5
20260510010232 15 341 8.0 12.9 0.00 0.13 0.13 48 1005.3
20260510005729 15 338 3.2 25.7 0.00 0.13 0.13 46 1005.3
20260510005226 15 330 4.8 6.4 0.00 0.13 0.13 44 1004.7
20260510004724 16 340 0.0 1.6 0.00 0.13 0.13 42 1004.8
20260510004222 16 348 0.0 1.6 0.00 0.13 0.13 41 1004.4
20260510003719 16 310 4.8 4.8 0.00 0.13 0.13 41 1004.4
20260510003215 16 310 3.2 6.4 0.00 0.13 0.13 41 1004.3
20260510002714 16 281 6.4 6.4 0.00 0.13 0.13 40 1004.3
20260510002211 16 280 9.7 11.3 0.00 0.13 0.13 40 1004.1
20260510001708 16 281 8.0 12.9 0.00 0.13 0.13 40 1004.2
20260510001207 16 281 9.7 11.3 0.00 0.13 0.13 39 1004.0
20260510000708 16 137 4.8 17.7 0.00 0.13 0.13 39 1003.8
20260510000205 17 266 11.3 14.5 0.00 0.13 0.13 38 1004.0
20260509235702 17 268 9.7 17.7 0.00 0.13 0.13 37 1003.9
20260509235158 17 279 9.7 25.7 0.00 0.13 0.13 36 1003.6
20260509234654 17 299 14.5 29.0 0.00 0.13 0.13 36 1003.7
20260509234151 17 281 11.3 27.4 0.00 0.13 0.13 36 1003.6
20260509233649 17 277 22.5 35.4 0.00 0.13 0.13 35 1003.6
20260509233146 17 253 17.7 22.5 0.00 0.13 0.13 37 1003.5
20260509232643 17 245 16.1 25.7 0.00 0.13 0.13 36 1003.5
20260509232139 18 277 27.4 33.8 0.00 0.13 0.13 37 1003.3
20260509231636 18 267 20.9 33.8 0.00 0.13 0.13 37 1003.5
20260509231134 18 220 24.1 33.8 0.00 0.13 0.13 39 1003.1
20260509230631 18 258 19.3 30.6 0.00 0.13 0.13 38 1003.1
20260509230127 18 268 27.4 38.6 0.00 0.13 0.13 38 1002.9
20260509225623 18 308 24.1 38.6 0.00 0.13 0.13 38 1002.6
20260509225119 18 249 8.0 22.5 0.00 0.13 0.13 39 1002.7
20260509224614 18 285 24.1 41.8 0.00 0.13 0.13 39 1002.5
20260509224112 18 280 30.6 35.4 0.00 0.13 0.13 40 1002.3
20260509223608 18 246 19.3 35.4 0.00 0.13 0.13 40 1002.2
20260509223106 18 276 11.3 25.7 0.00 0.13 0.13 42 1002.4
20260509222602 18 254 11.3 46.7 0.00 0.13 0.13 40 1002.2
20260509222058 18 277 27.4 41.8 0.00 0.13 0.13 38 1002.2
20260509221554 19 280 30.6 40.2 0.00 0.13 0.13 38 1001.9
20260509221050 19 285 19.3 33.8 0.00 0.13 0.13 40 1001.8
20260509220546 19 278 30.6 38.6 0.00 0.13 0.13 38 1001.6
20260509220043 19 257 32.2 46.7 0.00 0.13 0.13 37 1001.6
20260509215537 18 261 19.3 33.8 0.00 0.13 0.13 40 1001.6
20260509215035 18 279 14.5 30.6 0.00 0.13 0.13 41 1001.6
20260509214532 18 257 29.0 41.8 0.00 0.13 0.13 40 1001.5
20260509214029 18 271 24.1 33.8 0.00 0.13 0.13 40 1001.6
20260509213525 18 244 27.4 37.0 0.00 0.13 0.13 40 1001.5
20260509213022 18 280 22.5 43.5 0.00 0.13 0.13 38 1001.5
20260509212520 19 259 14.5 40.2 0.00 0.13 0.13 39 1001.4
20260509212016 19 290 17.7 33.8 0.00 0.13 0.13 39 1001.5
20260509211512 19 240 19.3 30.6 0.00 0.13 0.13 38 1001.5
20260509211009 19 272 25.7 43.5 0.00 0.13 0.13 40 1001.3
20260509210506 18 274 22.5 35.4 0.00 0.13 0.13 40 1001.4
20260509210001 18 259 16.1 48.3 0.00 0.13 0.13 40 1001.4
20260509205456 19 266 22.5 54.7 0.00 0.13 0.13 38 1001.0
20260509204951 19 284 20.9 35.4 0.00 0.13 0.13 41 1001.0
20260509204448 19 266 30.6 38.6 0.00 0.13 0.13 41 1001.1
20260509203945 19 234 25.7 30.6 0.00 0.13 0.13 40 1001.1
20260509203441 18 262 12.9 25.7 0.00 0.13 0.13 43 1001.3
20260509202939 18 288 29.0 43.5 0.00 0.13 0.13 42 1001.5
20260509202435 18 228 27.4 46.7 0.00 0.13 0.13 40 1001.9
20260509201930 18 263 24.1 41.8 0.00 0.13 0.13 44 1001.8
20260509201425 18 288 24.1 35.4 0.00 0.13 0.13 43 1001.6
20260509200923 18 260 17.7 38.6 0.00 0.13 0.13 44 1001.7
20260509200422 18 273 33.8 53.1 0.00 0.13 0.13 43 1001.5
20260509195919 18 271 33.8 38.6 0.00 0.13 0.13 44 1001.8
20260509195415 19 278 19.3 33.8 0.00 0.13 0.13 48 1001.7
20260509194914 18 272 14.5 22.5 0.00 0.13 0.13 55 1001.8
20260509194411 18 278 8.0 12.9 0.00 0.13 0.13 58 1001.9
20260509193908 17 262 8.0 11.3 0.00 0.13 0.13 62 1001.9
20260509193407 17 268 6.4 17.7 0.00 0.13 0.13 64 1001.8
20260509192903 17 263 9.7 16.1 0.00 0.13 0.13 61 1001.9
20260509192359 17 227 16.1 20.9 0.00 0.13 0.13 62 1002.1
20260509191855 17 279 11.3 22.5 0.00 0.13 0.13 62 1002.0
20260509191351 16 255 9.7 16.1 0.00 0.13 0.13 64 1002.2
20260509190847 15 274 14.5 16.1 0.00 0.13 0.13 64 1002.3
20260509190344 14 260 12.9 16.1 0.00 0.13 0.13 65 1002.3
20260509185841 13 259 8.0 12.9 0.00 0.13 0.13 68 1002.1
20260509185338 13 261 6.4 14.5 0.18 0.13 0.13 68 1002.2
20260509184835 13 247 12.9 37.0 0.48 0.13 0.13 67 1002.0
20260509184332 13 238 27.4 41.8 0.30 0.10 0.10 74 1002.6
20260509183829 13 269 20.9 41.8 0.30 0.05 0.05 72 1002.4
20260509183324 15 272 40.2 56.3 0.30 0.05 0.05 66 1002.1
20260509182820 18 271 19.3 49.9 0.00 0.00 0.00 46 1001.5
20260509182318 18 237 14.5 22.5 0.00 0.00 0.00 50 1001.0
20260509181815 18 267 12.9 17.7 0.00 0.00 0.00 50 1001.0
20260509181312 18 242 6.4 16.1 0.00 0.00 0.00 51 1000.8
20260509180809 18 268 9.7 20.9 0.00 0.00 0.00 52 1000.8